| time (UTC) | temp F | wind direction | speed knots | gust knots | rain 1hr in | rain 24hr in | rain mn in | humidity % | barometer mb |
| 20260506231017 | 67 | 301 | 13.9 | 20.0 | 0.00 | 0.00 | 0.00 | 1 | 1008.3 |
| 20260506230514 | 67 | 333 | 9.6 | 18.2 | 0.00 | 0.00 | 0.00 | 1 | 1008.4 |
| 20260506230045 | 67 | 281 | 12.2 | 20.9 | 0.00 | 0.00 | 0.00 | 1 | 1008.4 |
| 20260506225519 | 67 | 296 | 13.9 | 20.9 | 0.00 | 0.00 | 0.00 | 1 | 1008.6 |
| 20260506225016 | 68 | 325 | 13.9 | 20.9 | 0.00 | 0.00 | 0.00 | 1 | 1008.3 |
| 20260506224540 | 69 | 273 | 13.0 | 19.1 | 0.00 | 0.00 | 0.00 | 1 | 1008.7 |
| 20260506224014 | 68 | 245 | 13.9 | 18.2 | 0.00 | 0.00 | 0.00 | 1 | 1008.7 |
| 20260506223517 | 68 | 312 | 9.6 | 18.2 | 0.00 | 0.00 | 0.00 | 1 | 1008.7 |
| 20260506223045 | 67 | 299 | 9.6 | 19.1 | 0.00 | 0.00 | 0.00 | 1 | 1008.9 |
| 20260506222517 | 68 | 315 | 9.6 | 19.1 | 0.00 | 0.00 | 0.00 | 1 | 1009.0 |
| 20260506222014 | 68 | 311 | 10.4 | 17.4 | 0.00 | 0.00 | 0.00 | 1 | 1009.0 |
| 20260506221538 | 67 | 304 | 11.3 | 19.1 | 0.00 | 0.00 | 0.00 | 1 | 1009.2 |
| 20260506221018 | 67 | 271 | 12.2 | 19.1 | 0.00 | 0.00 | 0.00 | 1 | 1009.4 |
| 20260506220514 | 66 | 275 | 11.3 | 17.4 | 0.00 | 0.00 | 0.00 | 1 | 1009.5 |
| 20260506220035 | 66 | 312 | 11.3 | 16.5 | 0.00 | 0.00 | 0.00 | 1 | 1009.5 |
| 20260506215517 | 67 | 302 | 9.6 | 20.0 | 0.00 | 0.00 | 0.00 | 1 | 1009.4 |
| 20260506215015 | 66 | 284 | 10.4 | 14.8 | 0.00 | 0.00 | 0.00 | 1 | 1009.6 |
| 20260506214545 | 66 | 267 | 6.1 | 13.9 | 0.00 | 0.00 | 0.00 | 1 | 1009.8 |
| 20260506214016 | 66 | 258 | 7.8 | 14.8 | 0.00 | 0.00 | 0.00 | 1 | 1009.8 |
| 20260506213515 | 66 | 288 | 10.4 | 17.4 | 0.00 | 0.00 | 0.00 | 1 | 1009.9 |
| 20260506213042 | 65 | 291 | 9.6 | 24.3 | 0.00 | 0.00 | 0.00 | 1 | 1010.0 |
| 20260506212518 | 65 | 302 | 14.8 | 24.3 | 0.00 | 0.00 | 0.00 | 1 | 1009.9 |
| 20260506212018 | 64 | 321 | 6.1 | 13.0 | 0.00 | 0.00 | 0.00 | 1 | 1010.1 |
| 20260506211543 | 64 | 277 | 5.2 | 17.4 | 0.00 | 0.00 | 0.00 | 1 | 1010.1 |
| 20260506211015 | 64 | 285 | 9.6 | 17.4 | 0.00 | 0.00 | 0.00 | 1 | 1010.2 |
| 20260506210516 | 64 | 360 | 8.7 | 13.9 | 0.00 | 0.00 | 0.00 | 1 | 1010.3 |
| 20260506210041 | 63 | 227 | 3.5 | 13.0 | 0.00 | 0.00 | 0.00 | 1 | 1010.3 |
| 20260506205513 | 62 | 265 | 3.5 | 13.9 | 0.00 | 0.00 | 0.00 | 1 | 1010.3 |
| 20260506205018 | 62 | 315 | 6.1 | 15.6 | 0.00 | 0.00 | 0.00 | 1 | 1010.5 |
| 20260506204538 | 62 | 248 | 10.4 | 15.6 | 0.00 | 0.00 | 0.00 | 1 | 1010.5 |
| 20260506204016 | 62 | 240 | 8.7 | 15.6 | 0.00 | 0.00 | 0.00 | 1 | 1010.6 |
| 20260506203513 | 61 | 337 | 1.7 | 10.4 | 0.00 | 0.00 | 0.00 | 1 | 1010.7 |
| 20260506203047 | 61 | 251 | 6.1 | 16.5 | 0.00 | 0.00 | 0.00 | 1 | 1010.8 |
| 20260506202517 | 60 | 243 | 7.0 | 16.5 | 0.00 | 0.00 | 0.00 | 1 | 1010.7 |
| 20260506202017 | 61 | 240 | 7.0 | 12.2 | 0.00 | 0.00 | 0.00 | 1 | 1010.8 |
| 20260506201547 | 60 | 298 | 5.2 | 13.9 | 0.00 | 0.00 | 0.00 | 1 | 1011.0 |
| 20260506201027 | 60 | 259 | 9.6 | 14.8 | 0.00 | 0.00 | 0.00 | 1 | 1011.2 |
| 20260506200516 | 60 | 303 | 6.1 | 14.8 | 0.00 | 0.00 | 0.00 | 1 | 1011.1 |
| 20260506200152 | 60 | 228 | 8.7 | 12.2 | 0.00 | 0.00 | 0.00 | 1 | 1011.2 |
| 20260506195518 | 59 | 228 | 7.0 | 13.0 | 0.00 | 0.00 | 0.00 | 1 | 1011.2 |
| 20260506195016 | 59 | 290 | 7.0 | 13.9 | 0.00 | 0.00 | 0.00 | 1 | 1011.4 |
| 20260506194617 | 59 | 265 | 6.1 | 12.2 | 0.00 | 0.00 | 0.00 | 1 | 1011.4 |
| 20260506194017 | 58 | 242 | 6.1 | 14.8 | 0.00 | 0.00 | 0.00 | 1 | 1011.6 |
| 20260506193520 | 58 | 269 | 6.1 | 16.5 | 0.00 | 0.00 | 0.00 | 1 | 1011.5 |
| 20260506193055 | 58 | 243 | 10.4 | 16.5 | 0.00 | 0.00 | 0.00 | 1 | 1011.6 |
| 20260506192519 | 58 | 221 | 3.5 | 14.8 | 0.00 | 0.00 | 0.00 | 1 | 1011.5 |
| 20260506192017 | 57 | 222 | 7.8 | 14.8 | 0.00 | 0.00 | 0.00 | 1 | 1011.5 |
| 20260506191556 | 56 | 208 | 6.1 | 12.2 | 0.00 | 0.00 | 0.00 | 1 | 1011.7 |
| 20260506191018 | 56 | 207 | 4.3 | 14.8 | 0.00 | 0.00 | 0.00 | 1 | 1011.8 |
| 20260506190523 | 56 | 223 | 7.8 | 14.8 | 0.00 | 0.00 | 0.00 | 1 | 1012.0 |
| 20260506185517 | 56 | 224 | 4.3 | 13.0 | 0.00 | 0.00 | 0.00 | 1 | 1012.1 |
| 20260506185015 | 56 | 233 | 8.7 | 13.0 | 0.00 | 0.00 | 0.00 | 1 | 1012.1 |
| 20260506184552 | 55 | 205 | 6.1 | 10.4 | 0.00 | 0.00 | 0.00 | 1 | 1012.3 |
| 20260506184014 | 54 | 230 | 2.6 | 14.8 | 0.00 | 0.00 | 0.00 | 1 | 1012.4 |
| 20260506183518 | 55 | 214 | 10.4 | 14.8 | 0.00 | 0.00 | 0.00 | 1 | 1012.4 |
| 20260506183052 | 53 | 207 | 2.6 | 13.9 | 0.00 | 0.00 | 0.00 | 1 | 1012.7 |
| 20260506182516 | 53 | 196 | 5.2 | 13.0 | 0.00 | 0.00 | 0.00 | 1 | 1012.7 |
| 20260506182018 | 54 | 255 | 8.7 | 13.0 | 0.00 | 0.00 | 0.00 | 1 | 1012.9 |
| 20260506181531 | 54 | 208 | 6.1 | 13.9 | 0.00 | 0.00 | 0.00 | 1 | 1012.9 |
| 20260506181014 | 54 | 242 | 7.0 | 13.9 | 0.00 | 0.00 | 0.00 | 1 | 1012.8 |
| 20260506180525 | 52 | 198 | 4.3 | 10.4 | 0.00 | 0.00 | 0.00 | 1 | 1012.7 |
| 20260506180048 | 52 | 213 | 5.2 | 13.9 | 0.00 | 0.00 | 0.00 | 1 | 1013.0 |
| 20260506175515 | 52 | 199 | 7.8 | 13.9 | 0.00 | 0.00 | 0.00 | 1 | 1013.1 |
| 20260506175014 | 52 | 163 | 7.8 | 12.2 | 0.00 | 0.00 | 0.00 | 1 | 1013.1 |
| 20260506174547 | 51 | 221 | 4.3 | 14.8 | 0.00 | 0.00 | 0.00 | 1 | 1013.3 |
| 20260506174018 | 51 | 241 | 10.4 | 14.8 | 0.00 | 0.00 | 0.00 | 1 | 1013.2 |
| 20260506173520 | 51 | 186 | 6.1 | 13.9 | 0.00 | 0.00 | 0.00 | 1 | 1013.3 |
| 20260506173129 | 51 | 211 | 9.6 | 13.9 | 0.00 | 0.00 | 0.00 | 1 | 1013.4 |
| 20260506172518 | 50 | 142 | 6.1 | 12.2 | 0.00 | 0.00 | 0.00 | 1 | 1013.4 |
| 20260506172021 | 50 | 213 | 8.7 | 13.9 | 0.00 | 0.00 | 0.00 | 1 | 1013.3 |
| 20260506171822 | 50 | 189 | 5.2 | 13.9 | 0.00 | 0.00 | 0.00 | 1 | 1013.4 |
| 20260506171015 | 49 | 184 | 6.1 | 12.2 | 0.00 | 0.00 | 0.00 | 1 | 1013.5 |
| 20260506170526 | 49 | 220 | 8.7 | 11.3 | 0.00 | 0.00 | 0.00 | 1 | 1013.6 |
| 20260506170041 | 49 | 206 | 7.8 | 13.0 | 0.00 | 0.00 | 0.00 | 1 | 1013.8 |
| 20260506165514 | 49 | 189 | 9.6 | 13.0 | 0.00 | 0.00 | 0.00 | 1 | 1013.9 |
| 20260506165016 | 49 | 205 | 7.8 | 12.2 | 0.00 | 0.00 | 0.00 | 1 | 1014.1 |
| 20260506164539 | 49 | 196 | 7.8 | 13.0 | 0.00 | 0.00 | 0.00 | 1 | 1014.2 |
| 20260506164017 | 48 | 200 | 8.7 | 12.2 | 0.00 | 0.00 | 0.00 | 1 | 1014.0 |
| 20260506163513 | 48 | 225 | 7.0 | 12.2 | 0.00 | 0.00 | 0.00 | 1 | 1014.1 |
| 20260506163050 | 47 | 194 | 8.7 | 12.2 | 0.00 | 0.00 | 0.00 | 1 | 1014.2 |
| 20260506162515 | 47 | 183 | 5.2 | 13.9 | 0.00 | 0.00 | 0.00 | 1 | 1014.2 |
| 20260506162016 | 46 | 205 | 5.2 | 10.4 | 0.00 | 0.00 | 0.00 | 1 | 1014.3 |
| 20260506161553 | 46 | 195 | 5.2 | 9.6 | 0.00 | 0.00 | 0.00 | 1 | 1014.4 |
| 20260506161019 | 46 | 211 | 6.1 | 10.4 | 0.00 | 0.00 | 0.00 | 1 | 1014.5 |
| 20260506160515 | 45 | 163 | 6.1 | 10.4 | 0.00 | 0.00 | 0.00 | 1 | 1014.5 |
| 20260506160046 | 45 | 210 | 6.1 | 10.4 | 0.00 | 0.00 | 0.00 | 1 | 1014.5 |
| 20260506155518 | 45 | 184 | 7.0 | 8.7 | 0.00 | 0.00 | 0.00 | 1 | 1014.7 |
| 20260506155014 | 44 | 219 | 6.1 | 9.6 | 0.00 | 0.00 | 0.00 | 1 | 1014.8 |
| 20260506154544 | 44 | 196 | 7.0 | 9.6 | 0.00 | 0.00 | 0.00 | 1 | 1015.0 |
| 20260506154013 | 44 | 184 | 5.2 | 8.7 | 0.00 | 0.00 | 0.00 | 1 | 1015.0 |
| 20260506153514 | 43 | 202 | 7.0 | 8.7 | 0.00 | 0.00 | 0.00 | 1 | 1015.0 |
| 20260506153043 | 43 | 180 | 5.2 | 8.7 | 0.00 | 0.00 | 0.00 | 1 | 1015.1 |
| 20260506152515 | 43 | 205 | 5.2 | 8.7 | 0.00 | 0.00 | 0.00 | 1 | 1015.3 |
| 20260506152013 | 42 | 208 | 5.2 | 8.7 | 0.00 | 0.00 | 0.00 | 1 | 1015.3 |
| 20260506151540 | 42 | 209 | 7.0 | 8.7 | 0.00 | 0.00 | 0.00 | 1 | 1015.4 |
| 20260506151012 | 42 | 208 | 2.6 | 7.8 | 0.00 | 0.00 | 0.00 | 1 | 1015.5 |
| 20260506150527 | 42 | 199 | 2.6 | 5.2 | 0.00 | 0.00 | 0.00 | 1 | 1015.4 |
| 20260506150047 | 41 | 199 | 2.6 | 7.0 | 0.00 | 0.00 | 0.00 | 1 | 1015.4 |
| 20260506145515 | 41 | 207 | 4.3 | 7.8 | 0.00 | 0.00 | 0.00 | 1 | 1015.5 |
| 20260506145017 | 41 | 234 | 5.2 | 7.8 | 0.00 | 0.00 | 0.00 | 1 | 1015.5 |
| 20260506144951 | 41 | 190 | 4.3 | 7.8 | 0.00 | 0.00 | 0.00 | 1 | 1015.5 |
| 20260506144015 | 41 | 264 | 3.5 | 7.8 | 0.00 | 0.00 | 0.00 | 1 | 1015.6 |
| 20260506143519 | 40 | 209 | 2.6 | 7.0 | 0.00 | 0.00 | 0.00 | 1 | 1015.5 |
| 20260506143458 | 40 | 213 | 3.5 | 7.0 | 0.00 | 0.00 | 0.00 | 1 | 1015.6 |
| 20260506142516 | 40 | 209 | 1.7 | 4.3 | 0.00 | 0.00 | 0.00 | 1 | 1015.8 |
| 20260506142018 | 39 | 209 | 1.7 | 4.3 | 0.00 | 0.00 | 0.00 | 1 | 1015.8 |
| 20260506141957 | 39 | 214 | 1.7 | 4.3 | 0.00 | 0.00 | 0.00 | 1 | 1015.9 |
| 20260506141019 | 39 | 196 | 1.7 | 4.3 | 0.00 | 0.00 | 0.00 | 1 | 1016.1 |
| 20260506140516 | 39 | 235 | 1.7 | 4.3 | 0.00 | 0.00 | 0.00 | 1 | 1016.0 |
| 20260506140049 | 39 | 247 | 0.0 | 0.0 | 0.00 | 0.00 | 0.00 | 1 | 1016.0 |
| 20260506135519 | 39 | 194 | 0.0 | 0.0 | 0.00 | 0.00 | 0.00 | 1 | 1015.9 |
| 20260506135024 | 38 | 279 | 0.0 | 0.0 | 0.00 | 0.00 | 0.00 | 1 | 1016.1 |
| 20260506134948 | 38 | 317 | 0.0 | 0.0 | 0.00 | 0.00 | 0.00 | 1 | 1016.1 |
| 20260506134015 | 37 | 269 | 0.0 | 0.0 | 0.00 | 0.00 | 0.00 | 1 | 1016.0 |
| 20260506133513 | 36 | 5 | 0.0 | 0.0 | 0.00 | 0.00 | 0.00 | 1 | 1016.1 |
| 20260506133045 | 35 | 5 | 0.0 | 0.0 | 0.00 | 0.00 | 0.00 | 1 | 1016.3 |
| 20260506132515 | 34 | 5 | 0.0 | 0.0 | 0.00 | 0.00 | 0.00 | 1 | 1016.3 |
| 20260506132016 | 32 | 5 | 0.0 | 0.0 | 0.00 | 0.00 | 0.00 | 1 | 1016.3 |
| 20260506131601 | 31 | 5 | 0.0 | 0.0 | 0.00 | 0.00 | 0.00 | 1 | 1016.4 |
| 20260506131015 | 29 | 5 | 0.0 | 1.7 | 0.00 | 0.00 | 0.00 | 1 | 1016.6 |
| 20260506130519 | 28 | 5 | 0.0 | 2.6 | 0.00 | 0.00 | 0.00 | 1 | 1016.5 |
| 20260506130048 | 27 | 5 | 0.9 | 2.6 | 0.00 | 0.00 | 0.00 | 1 | 1016.4 |
| 20260506125525 | 27 | 5 | 0.0 | 2.6 | 0.00 | 0.00 | 0.00 | 1 | 1016.5 |
| 20260506125015 | 26 | 5 | 1.7 | 3.5 | 0.00 | 0.00 | 0.00 | 1 | 1016.7 |
| 20260506124548 | 25 | 5 | 1.7 | 4.3 | 0.00 | 0.00 | 0.00 | 1 | 1016.9 |
| 20260506124027 | 24 | 5 | 2.6 | 4.3 | 0.00 | 0.00 | 0.00 | 1 | 1017.0 |
| 20260506123516 | 24 | 5 | 1.7 | 2.6 | 0.00 | 0.00 | 0.00 | 1 | 1017.1 |
| 20260506123056 | 23 | 5 | 0.9 | 3.5 | 0.00 | 0.00 | 0.00 | 1 | 1017.2 |
| 20260506122515 | 23 | 5 | 1.7 | 3.5 | 0.00 | 0.00 | 0.00 | 1 | 1017.2 |
| 20260506122014 | 22 | 5 | 0.9 | 3.5 | 0.00 | 0.00 | 0.00 | 1 | 1017.1 |
| 20260506121606 | 22 | 5 | 1.7 | 3.5 | 0.00 | 0.00 | 0.00 | 1 | 1017.2 |
| 20260506121016 | 21 | 5 | 2.6 | 4.3 | 0.00 | 0.00 | 0.00 | 1 | 1017.2 |
| 20260506120530 | 20 | 5 | 2.6 | 4.3 | 0.00 | 0.00 | 0.00 | 1 | 1017.3 |
| 20260506120110 | 20 | 5 | 1.7 | 3.5 | 0.00 | 0.00 | 0.00 | 1 | 1017.3 |
| 20260506115516 | 20 | 5 | 2.6 | 3.5 | 0.00 | 0.00 | 0.00 | 1 | 1017.5 |
| 20260506115020 | 20 | 5 | 2.6 | 3.5 | 0.00 | 0.00 | 0.00 | 1 | 1017.5 |
| 20260506114609 | 19 | 5 | 1.7 | 3.5 | 0.00 | 0.00 | 0.00 | 1 | 1017.5 |
| 20260506114017 | 19 | 5 | 1.7 | 4.3 | 0.00 | 0.00 | 0.00 | 1 | 1017.5 |
| 20260506113519 | 18 | 5 | 2.6 | 4.3 | 0.00 | 0.00 | 0.00 | 1 | 1017.5 |
| 20260506113311 | 18 | 5 | 1.7 | 2.6 | 0.00 | 0.00 | 0.00 | 1 | 1017.5 |
| 20260506112519 | 18 | 5 | 0.0 | 0.0 | 0.00 | 0.00 | 0.00 | 1 | 1017.5 |
| 20260506112016 | 18 | 5 | 0.0 | 0.0 | 0.00 | 0.00 | 0.00 | 1 | 1017.5 |
| 20260506111627 | 18 | 5 | 0.0 | 0.0 | 0.00 | 0.00 | 0.00 | 1 | 1017.7 |
| 20260506111015 | 18 | 5 | 0.0 | 0.0 | 0.00 | 0.00 | 0.00 | 1 | 1017.8 |
| 20260506110518 | 17 | 5 | 0.0 | 1.7 | 0.00 | 0.00 | 0.00 | 1 | 1017.8 |
| 20260506110124 | 18 | 5 | 0.0 | 2.6 | 0.00 | 0.00 | 0.00 | 1 | 1017.8 |
| 20260506105515 | 18 | 5 | 0.9 | 2.6 | 0.00 | 0.00 | 0.00 | 1 | 1017.9 |
| 20260506105018 | 17 | 5 | 0.9 | 2.6 | 0.00 | 0.00 | 0.00 | 1 | 1017.9 |
| 20260506104551 | 18 | 5 | 0.9 | 1.7 | 0.00 | 0.00 | 0.00 | 1 | 1018.0 |
| 20260506104020 | 18 | 5 | 0.0 | 1.7 | 0.00 | 0.00 | 0.00 | 1 | 1018.0 |
| 20260506103517 | 18 | 5 | 0.0 | 2.6 | 0.00 | 0.00 | 0.00 | 1 | 1018.1 |
| 20260506103046 | 18 | 5 | 0.9 | 2.6 | 0.00 | 0.00 | 0.00 | 1 | 1018.1 |
| 20260506102516 | 19 | 5 | 0.9 | 4.3 | 0.00 | 0.00 | 0.00 | 1 | 1018.1 |
| 20260506102016 | 19 | 5 | 1.7 | 4.3 | 0.00 | 0.00 | 0.00 | 1 | 1018.2 |
| 20260506101556 | 19 | 5 | 1.7 | 3.5 | 0.00 | 0.00 | 0.00 | 1 | 1018.3 |
| 20260506101017 | 19 | 5 | 1.7 | 4.3 | 0.00 | 0.00 | 0.00 | 1 | 1018.3 |
| 20260506100516 | 19 | 5 | 1.7 | 4.3 | 0.00 | 0.00 | 0.00 | 1 | 1018.4 |
| 20260506100050 | 19 | 5 | 2.6 | 4.3 | 0.00 | 0.00 | 0.00 | 1 | 1018.3 |
| 20260506095514 | 19 | 5 | 0.9 | 3.5 | 0.00 | 0.00 | 0.00 | 1 | 1018.4 |
| 20260506095027 | 19 | 5 | 1.7 | 3.5 | 0.00 | 0.00 | 0.00 | 1 | 1018.4 |
| 20260506094550 | 18 | 5 | 2.6 | 3.5 | 0.00 | 0.00 | 0.00 | 1 | 1018.4 |
| 20260506094023 | 19 | 5 | 1.7 | 2.6 | 0.00 | 0.00 | 0.00 | 1 | 1018.6 |
| 20260506093520 | 19 | 5 | 1.7 | 2.6 | 0.00 | 0.00 | 0.00 | 1 | 1018.6 |
| 20260506093053 | 19 | 5 | 1.7 | 3.5 | 0.00 | 0.00 | 0.00 | 1 | 1018.7 |
| 20260506092519 | 19 | 5 | 2.6 | 3.5 | 0.00 | 0.00 | 0.00 | 1 | 1018.7 |
| 20260506092020 | 19 | 5 | 1.7 | 2.6 | 0.00 | 0.00 | 0.00 | 1 | 1018.7 |
| 20260506091552 | 19 | 5 | 1.7 | 2.6 | 0.00 | 0.00 | 0.00 | 1 | 1018.8 |
| 20260506091015 | 19 | 5 | 1.7 | 3.5 | 0.00 | 0.00 | 0.00 | 1 | 1018.7 |
| 20260506090517 | 19 | 5 | 1.7 | 3.5 | 0.00 | 0.00 | 0.00 | 1 | 1018.8 |
| 20260506090343 | 20 | 5 | 1.7 | 3.5 | 0.00 | 0.00 | 0.00 | 1 | 1018.9 |
| 20260506085518 | 20 | 5 | 1.7 | 3.5 | 0.00 | 0.00 | 0.00 | 1 | 1018.9 |
| 20260506085017 | 20 | 5 | 2.6 | 3.5 | 0.00 | 0.00 | 0.00 | 1 | 1019.0 |
| 20260506084611 | 20 | 5 | 1.7 | 3.5 | 0.00 | 0.00 | 0.00 | 1 | 1019.0 |
| 20260506084018 | 19 | 5 | 1.7 | 3.5 | 0.00 | 0.00 | 0.00 | 1 | 1018.9 |
| 20260506083517 | 19 | 5 | 1.7 | 4.3 | 0.00 | 0.00 | 0.00 | 1 | 1019.0 |
| 20260506083344 | 19 | 5 | 3.5 | 4.3 | 0.00 | 0.00 | 0.00 | 1 | 1019.1 |
| 20260506082516 | 19 | 5 | 2.6 | 3.5 | 0.00 | 0.00 | 0.00 | 1 | 1019.1 |
| 20260506082028 | 20 | 5 | 1.7 | 4.3 | 0.00 | 0.00 | 0.00 | 1 | 1019.2 |
| 20260506081559 | 20 | 5 | 3.5 | 4.3 | 0.00 | 0.00 | 0.00 | 1 | 1019.3 |
| 20260506081023 | 20 | 5 | 1.7 | 5.2 | 0.00 | 0.00 | 0.00 | 1 | 1019.2 |
| 20260506080520 | 20 | 5 | 3.5 | 5.2 | 0.00 | 0.00 | 0.00 | 1 | 1019.2 |
| 20260506080105 | 21 | 5 | 2.6 | 4.3 | 0.00 | 0.00 | 0.00 | 1 | 1019.3 |
| 20260506073522 | 22 | 5 | 1.7 | 3.5 | 0.00 | 0.00 | 0.00 | 1 | 1019.5 |
| 20260506073058 | 22 | 5 | 1.7 | 4.3 | 0.00 | 0.00 | 0.00 | 1 | 1019.5 |
| 20260506072520 | 22 | 5 | 1.7 | 4.3 | 0.00 | 0.00 | 0.00 | 1 | 1019.5 |
| 20260506072018 | 23 | 5 | 2.6 | 4.3 | 0.00 | 0.00 | 0.00 | 1 | 1019.5 |
| 20260506071558 | 23 | 5 | 2.6 | 4.3 | 0.00 | 0.00 | 0.00 | 1 | 1019.4 |
| 20260506071020 | 23 | 5 | 2.6 | 3.5 | 0.00 | 0.00 | 0.00 | 1 | 1019.4 |
| 20260506070518 | 22 | 5 | 2.6 | 3.5 | 0.00 | 0.00 | 0.00 | 1 | 1019.5 |
| 20260506070123 | 22 | 5 | 2.6 | 4.3 | 0.00 | 0.00 | 0.00 | 1 | 1019.5 |
| 20260506062516 | 23 | 5 | 2.6 | 3.5 | 0.00 | 0.00 | 0.00 | 1 | 1019.7 |
| 20260506062018 | 25 | 5 | 2.6 | 3.5 | 0.00 | 0.00 | 0.00 | 1 | 1019.7 |
| 20260506061550 | 26 | 5 | 2.6 | 5.2 | 0.00 | 0.00 | 0.00 | 1 | 1019.6 |
| 20260506061017 | 27 | 5 | 3.5 | 5.2 | 0.00 | 0.00 | 0.00 | 1 | 1019.6 |
| 20260506060516 | 25 | 5 | 3.5 | 4.3 | 0.00 | 0.00 | 0.00 | 1 | 1019.6 |
| 20260506051027 | 22 | 5 | 2.6 | 4.3 | 0.00 | 0.00 | 0.00 | 1 | 1019.9 |
| 20260506050521 | 22 | 5 | 2.6 | 4.3 | 0.00 | 0.00 | 0.00 | 1 | 1019.8 |
| 20260506045027 | 23 | 5 | 1.7 | 3.5 | 0.00 | 0.00 | 0.00 | 1 | 1020.0 |
| 20260506044556 | 23 | 5 | 1.7 | 3.5 | 0.00 | 0.00 | 0.00 | 1 | 1020.0 |
| 20260506044020 | 24 | 5 | 1.7 | 3.5 | 0.00 | 0.00 | 0.00 | 1 | 1019.8 |
| 20260506043517 | 24 | 5 | 1.7 | 2.6 | 0.00 | 0.00 | 0.00 | 1 | 1020.0 |
| 20260506043056 | 25 | 5 | 0.9 | 2.6 | 0.00 | 0.00 | 0.00 | 1 | 1019.8 |
| 20260506042518 | 26 | 5 | 0.9 | 2.6 | 0.00 | 0.00 | 0.00 | 1 | 1019.8 |
| 20260506042017 | 26 | 5 | 1.7 | 2.6 | 0.00 | 0.00 | 0.00 | 1 | 1019.9 |
| 20260506041614 | 26 | 5 | 0.9 | 3.5 | 0.00 | 0.00 | 0.00 | 1 | 1019.8 |
| 20260506041027 | 26 | 5 | 0.0 | 3.5 | 0.00 | 0.00 | 0.00 | 1 | 1019.9 |
| 20260506040523 | 28 | 5 | 1.7 | 3.5 | 0.00 | 0.00 | 0.00 | 1 | 1019.8 |
| 20260506040059 | 29 | 5 | 0.9 | 3.5 | 0.00 | 0.00 | 0.00 | 1 | 1019.8 |
| 20260506035527 | 29 | 5 | 1.7 | 3.5 | 0.00 | 0.00 | 0.00 | 1 | 1019.8 |
| 20260506035016 | 29 | 5 | 1.7 | 3.5 | 0.00 | 0.00 | 0.00 | 1 | 1019.8 |
| 20260506034557 | 29 | 5 | 0.9 | 3.5 | 0.00 | 0.00 | 0.00 | 1 | 1019.6 |
| 20260506034017 | 28 | 5 | 1.7 | 3.5 | 0.00 | 0.00 | 0.00 | 1 | 1019.5 |
| 20260506033519 | 29 | 5 | 2.6 | 3.5 | 0.00 | 0.00 | 0.00 | 1 | 1019.6 |
| 20260506033107 | 30 | 5 | 1.7 | 3.5 | 0.00 | 0.00 | 0.00 | 1 | 1019.7 |
| 20260506032516 | 31 | 5 | 1.7 | 4.3 | 0.00 | 0.00 | 0.00 | 1 | 1019.5 |
| 20260506032016 | 32 | 5 | 1.7 | 3.5 | 0.00 | 0.00 | 0.00 | 1 | 1019.4 |
| 20260506031839 | 33 | 5 | 1.7 | 4.3 | 0.00 | 0.00 | 0.00 | 1 | 1019.5 |
| 20260506031021 | 33 | 5 | 3.5 | 4.3 | 0.00 | 0.00 | 0.00 | 1 | 1019.4 |
| 20260506030520 | 34 | 5 | 1.7 | 4.3 | 0.00 | 0.00 | 0.00 | 1 | 1019.3 |
| 20260506030100 | 35 | 5 | 2.6 | 4.3 | 0.00 | 0.00 | 0.00 | 1 | 1019.3 |
| 20260506025520 | 36 | 5 | 2.6 | 4.3 | 0.00 | 0.00 | 0.00 | 1 | 1019.3 |
| 20260506025018 | 36 | 5 | 2.6 | 4.3 | 0.00 | 0.00 | 0.00 | 1 | 1019.5 |
| 20260506024607 | 37 | 5 | 3.5 | 5.2 | 0.00 | 0.00 | 0.00 | 1 | 1019.2 |
| 20260506024021 | 38 | 5 | 4.3 | 5.2 | 0.00 | 0.00 | 0.00 | 1 | 1019.1 |
| 20260506023521 | 38 | 11 | 2.6 | 8.7 | 0.00 | 0.00 | 0.00 | 1 | 1019.1 |
| 20260506023106 | 39 | 348 | 2.6 | 8.7 | 0.00 | 0.00 | 0.00 | 1 | 1018.9 |
| 20260506022514 | 39 | 30 | 5.2 | 8.7 | 0.00 | 0.00 | 0.00 | 1 | 1018.9 |
| 20260506022027 | 40 | 336 | 4.3 | 8.7 | 0.00 | 0.00 | 0.00 | 1 | 1019.0 |
| 20260506021553 | 40 | 351 | 6.1 | 11.3 | 0.00 | 0.00 | 0.00 | 1 | 1019.1 |
| 20260506021020 | 41 | 360 | 7.8 | 11.3 | 0.00 | 0.00 | 0.00 | 1 | 1019.0 |
| 20260506020515 | 41 | 17 | 7.0 | 13.9 | 0.00 | 0.00 | 0.00 | 1 | 1018.9 |
| 20260506020111 | 41 | 5 | 7.0 | 13.9 | 0.00 | 0.00 | 0.00 | 1 | 1018.9 |
| 20260506015517 | 41 | 355 | 7.8 | 13.0 | 0.00 | 0.00 | 0.00 | 1 | 1018.8 |
| 20260506015019 | 42 | 344 | 9.6 | 14.8 | 0.00 | 0.00 | 0.00 | 1 | 1018.8 |
| 20260506014557 | 42 | 350 | 12.2 | 14.8 | 0.00 | 0.00 | 0.00 | 1 | 1018.7 |
| 20260506014018 | 42 | 355 | 7.8 | 13.9 | 0.00 | 0.00 | 0.00 | 1 | 1018.8 |
| 20260506013515 | 42 | 355 | 9.6 | 17.4 | 0.00 | 0.00 | 0.00 | 1 | 1018.9 |
| 20260506013052 | 42 | 5 | 12.2 | 18.2 | 0.00 | 0.00 | 0.00 | 1 | 1018.7 |
| 20260506012515 | 43 | 15 | 13.0 | 18.2 | 0.00 | 0.00 | 0.00 | 1 | 1018.8 |
| 20260506012026 | 43 | 5 | 9.6 | 20.9 | 0.00 | 0.00 | 0.00 | 1 | 1018.8 |
| 20260506011626 | 43 | 12 | 14.8 | 20.9 | 0.00 | 0.00 | 0.00 | 1 | 1018.7 |
| 20260506011015 | 43 | 360 | 10.4 | 18.2 | 0.00 | 0.00 | 0.00 | 1 | 1019.1 |
| 20260506010517 | 43 | 24 | 13.9 | 18.2 | 0.00 | 0.00 | 0.00 | 1 | 1018.9 |
| 20260506010053 | 43 | 333 | 8.7 | 16.5 | 0.00 | 0.00 | 0.00 | 1 | 1018.9 |
| 20260506005516 | 43 | 355 | 9.6 | 19.1 | 0.00 | 0.00 | 0.00 | 1 | 1018.9 |
| 20260506005015 | 43 | 9 | 13.0 | 18.2 | 0.00 | 0.00 | 0.00 | 1 | 1018.6 |
| 20260506004600 | 43 | 12 | 12.2 | 17.4 | 0.00 | 0.00 | 0.00 | 1 | 1018.8 |
| 20260506004017 | 43 | 355 | 12.2 | 17.4 | 0.00 | 0.00 | 0.00 | 1 | 1018.6 |
| 20260506003519 | 44 | 360 | 12.2 | 19.1 | 0.00 | 0.00 | 0.00 | 1 | 1018.7 |
| 20260506003049 | 44 | 5 | 11.3 | 17.4 | 0.00 | 0.00 | 0.00 | 1 | 1018.7 |
| 20260506002519 | 43 | 5 | 12.2 | 17.4 | 0.00 | 0.00 | 0.00 | 1 | 1018.6 |
| 20260506002017 | 44 | 336 | 12.2 | 19.1 | 0.00 | 0.00 | 0.00 | 1 | 1018.6 |
| 20260506001609 | 44 | 330 | 13.9 | 19.1 | 0.00 | 0.00 | 0.00 | 1 | 1018.4 |
| 20260506001018 | 44 | 355 | 13.9 | 21.7 | 0.00 | 0.00 | 0.00 | 1 | 1018.7 |
| 20260506000521 | 45 | 346 | 14.8 | 21.7 | 0.00 | 0.00 | 0.00 | 1 | 1018.6 |
| 20260506000123 | 45 | 331 | 14.8 | 20.0 | 0.00 | 0.00 | 0.00 | 1 | 1018.6 |
| 20260505235517 | 44 | 350 | 11.3 | 20.9 | 0.00 | 0.00 | 0.00 | 1 | 1018.6 |
| 20260505235020 | 45 | 355 | 15.6 | 22.6 | 0.00 | 0.00 | 0.00 | 1 | 1018.5 |
| 20260505234611 | 44 | 333 | 15.6 | 22.6 | 0.00 | 0.00 | 0.00 | 1 | 1018.7 |
| 20260505234020 | 45 | 332 | 13.9 | 21.7 | 0.00 | 0.00 | 0.00 | 1 | 1018.7 |
| 20260505233517 | 44 | 322 | 15.6 | 21.7 | 0.00 | 0.00 | 0.00 | 1 | 1018.5 |
| 20260505233116 | 44 | 349 | 13.9 | 23.5 | 0.00 | 0.00 | 0.00 | 1 | 1018.6 |
| 20260505232522 | 44 | 336 | 16.5 | 23.5 | 0.00 | 0.00 | 0.00 | 1 | 1018.4 |
| 20260505232019 | 43 | 17 | 14.8 | 20.9 | 0.00 | 0.00 | 0.00 | 1 | 1018.7 |
| 20260505231613 | 44 | 340 | 14.8 | 24.3 | 0.00 | 0.00 | 0.00 | 1 | 1018.8 |